Weather History for KLBF - January, 2013

Change the Weather History Date:

Monday, January 7, 2013

  Actual Average Record
Temperature  
Mean Temperature 28 °F 25 °F  
Max Temperature 45 °F 39 °F 67 °F (2006)
Min Temperature 11 °F 11 °F -23 °F (1979)
Degree Days  
Heating Degree Days 37 40  
Month to date heating degree days 309 285  
Since 1 July heating degree days 3024 3065  
Cooling Degree Days 0 0  
Month to date cooling degree days 0 0  
Year to date cooling degree days 0 0  
Moisture  
Dew Point 17 °F    
Average Humidity 66    
Maximum Humidity 92    
Minimum Humidity 40    
Precipitation  
Precipitation 0.00 in 0.01 in 0.75 in (1992)
Month to date precipitation T 0.08  
Year to date precipitation T 0.08  
Snow  
Snow 0.00 in 0.20 in 3.70 in (1992)
Month to date snowfall 0.1 1.1  
Since 1 July snowfall 8.0 11.9  
Snow Depth 0.00 in    
Sea Level Pressure  
Sea Level Pressure 30.02 in    
Wind  
Wind Speed 4 mph (NW)    
Max Wind Speed 17 mph    
Max Gust Speed 20 mph    
Visibility 10 miles    
Events      
T = Trace of Precipitation, MM = Missing Value Source: NWS Daily Summary

Daily Weather History Graph

Daily Weather History Graph

Search for Another Location

Airport or City:

Trip Planner

Search our weather history database for the weather conditions in past years. The results will help you decide how hot, cold, wet, or windy it might be!

Date:

Astronomy

Jan. 07, 2013 Rise Set
Actual Time 8:07 AM CST 5:30 PM CST
Civil Twilight 7:37 AM CST 6:01 PM CST
Nautical Twilight 7:02 AM CST 6:35 PM CST
Astronomical Twilight 6:29 AM CST 7:09 PM CST
Moon 3:33 AM CST (1/7) 1:43 PM CST (1/7)
Length of Visible Light 10h 24m
Length of Day
9h 22m
Waning Crescent, 22% of the Moon is Illuminated
Jan 7
Waning Crescent
Jan 11
New
Jan 18
First Quarter
Jan 26
Full
Feb 3
Last Quarter

Hourly Weather History & Observations

Time (CST) Temp. Windchill Dew Point Humidity Pressure Visibility Wind Dir Wind Speed Gust Speed Precip Events Conditions
12:53 AM 24.1 °F 17.0 °F 19.9 °F 84% 30.00 in 10.0 mi West 5.8 mph - N/A   Clear
1:53 AM 23.0 °F 18.4 °F 19.0 °F 85% 29.97 in 10.0 mi SW 3.5 mph - N/A   Clear
2:53 AM 17.1 °F - 14.0 °F 88% 30.00 in 10.0 mi Calm Calm - N/A   Clear
3:53 AM 17.1 °F - 14.0 °F 88% 30.00 in 10.0 mi Calm Calm - N/A   Clear
4:53 AM 16.0 °F 5.3 °F 12.9 °F 88% 30.01 in 10.0 mi West 8.1 mph - N/A   Clear
5:53 AM 15.1 °F 6.4 °F 12.0 °F 88% 30.02 in 10.0 mi West 5.8 mph - N/A   Clear
6:53 AM 12.9 °F 3.8 °F 10.0 °F 88% 30.05 in 10.0 mi NW 5.8 mph - N/A   Clear
7:53 AM 15.1 °F 6.4 °F 10.9 °F 84% 30.07 in 10.0 mi NNW 5.8 mph - N/A   Clear
8:53 AM 17.1 °F 8.7 °F 12.9 °F 84% 30.08 in 10.0 mi NW 5.8 mph - N/A   Clear
9:53 AM 23.0 °F 17.0 °F 18.0 °F 81% 30.08 in 10.0 mi NW 4.6 mph - N/A   Clear
10:53 AM 30.0 °F 24.1 °F 21.0 °F 69% 30.09 in 10.0 mi WNW 5.8 mph - N/A   Clear
11:53 AM 35.1 °F 32.2 °F 21.9 °F 59% 30.08 in 10.0 mi WNW 3.5 mph - N/A   Clear
12:53 PM 41.0 °F 35.8 °F 21.2 °F 45% 29.98 in 10.0 mi NE 8.1 mph - N/A   Clear
1:53 PM 43.0 °F 37.7 °F 21.0 °F 42% 30.01 in 10.0 mi ENE 9.2 mph - N/A   Clear
2:53 PM 43.0 °F 38.2 °F 21.9 °F 43% 30.01 in 10.0 mi East 8.1 mph - N/A   Clear
3:53 PM 45.0 °F 42.6 °F 21.9 °F 40% 30.01 in 10.0 mi ENE 4.6 mph - N/A   Clear
4:53 PM 41.0 °F - 23.0 °F 49% 30.00 in 10.0 mi Calm Calm - N/A   Clear
5:53 PM 33.1 °F - 21.9 °F 64% 30.02 in 10.0 mi Calm Calm - N/A   Clear
6:53 PM 26.1 °F - 19.9 °F 78% 30.04 in 10.0 mi Calm Calm - N/A   Clear
7:53 PM 25.0 °F - 19.0 °F 78% 30.03 in 10.0 mi Calm Calm - N/A   Clear
8:53 PM 23.0 °F - 17.1 °F 78% 30.02 in 10.0 mi Calm Calm - N/A   Clear
9:53 PM 21.0 °F - 18.0 °F 88% 30.00 in 10.0 mi Calm Calm - N/A   Clear
10:53 PM 16.0 °F 8.8 °F 12.9 °F 88% 29.99 in 10.0 mi WNW 4.6 mph - N/A   Clear
11:53 PM 18.0 °F - 15.1 °F 88% 29.95 in 10.0 mi Calm Calm - N/A   Clear